THY6767 LTFM-LMML

Flight info

Callsign THY6767
Flight time N/A
Altitude 36000
Route BARPE1D/35L BARPE UM603 SUTIS DCT RUTOM/N0444F370 DCT ABAKO DCT LORED/N0430F300 P624 GZO DCT
Aircraft A321/M-SDE3FGHIRWY/LB1

Departure

Time 2026-05-04 11:05
Airport İstanbul Airport (LTFM)

Arrival

Time N/A
Airport Malta International Airport (LMML)
Time Latitude Longitude Altitude Speed Heading
2026-05-04 10:36 41.25909 28.73540 334 ft 0 kts 107°
2026-05-04 10:40 41.25909 28.73539 334 ft 0 kts 107°
2026-05-04 10:51 41.25909 28.73538 334 ft 0 kts 107°
2026-05-04 10:56 41.25912 28.73527 329 ft 2 kts 107°
2026-05-04 10:57 41.25915 28.73512 333 ft 2 kts 107°
2026-05-04 10:57 41.25919 28.73494 329 ft 2 kts 107°
2026-05-04 10:57 41.25924 28.73475 329 ft 2 kts 105°
2026-05-04 10:57 41.25926 28.73454 329 ft 2 kts 75°
2026-05-04 10:58 41.25920 28.73434 329 ft 2 kts 50°
2026-05-04 10:58 41.25908 28.73419 329 ft 2 kts 31°
2026-05-04 10:58 41.25896 28.73410 330 ft 0 kts 15°
2026-05-04 10:59 41.25895 28.73410 330 ft 0 kts 15°
2026-05-04 11:00 41.25896 28.73410 330 ft 1 kts 15°
2026-05-04 11:01 41.26220 28.73282 332 ft 13 kts 268°
2026-05-04 11:02 41.26217 28.73129 331 ft 21 kts 269°
2026-05-04 11:02 41.26216 28.72916 334 ft 24 kts 269°
2026-05-04 11:05 41.38495 28.69008 5151 ft 279 kts 285°
2026-05-04 11:06 41.38355 28.66374 5949 ft 293 kts 259°
2026-05-04 11:06 41.37764 28.63761 6770 ft 297 kts 254°
2026-05-04 11:06 41.37050 28.61150 7570 ft 301 kts 252°
2026-05-04 11:06 41.36294 28.58529 8358 ft 305 kts 251°
2026-05-04 11:08 41.30735 28.37956 12442 ft 370 kts 251°
2026-05-04 11:10 41.24567 28.14697 17077 ft 393 kts 250°
2026-05-04 11:12 41.17993 27.90288 21568 ft 402 kts 247°
2026-05-04 11:12 41.17067 27.86836 22235 ft 402 kts 247°
2026-05-04 11:12 41.16129 27.83343 22874 ft 402 kts 246°
2026-05-04 11:12 41.15188 27.79844 23473 ft 403 kts 246°
2026-05-04 11:13 41.14241 27.76337 23974 ft 405 kts 246°
2026-05-04 11:13 41.13288 27.72820 24404 ft 407 kts 246°
2026-05-04 11:13 41.12326 27.69277 24820 ft 409 kts 246°
2026-05-04 11:13 41.11355 27.65714 25218 ft 412 kts 246°
2026-05-04 11:14 41.10375 27.62126 25612 ft 415 kts 246°
2026-05-04 11:14 41.09386 27.58519 26010 ft 418 kts 246°
2026-05-04 11:14 41.08389 27.54883 26388 ft 421 kts 246°
2026-05-04 11:16 41.01219 27.28736 28936 ft 441 kts 246°
2026-05-04 11:16 41.00159 27.24913 29260 ft 444 kts 246°
2026-05-04 11:16 40.99090 27.21067 29583 ft 447 kts 246°
2026-05-04 11:17 40.98028 27.17236 29895 ft 450 kts 246°
2026-05-04 11:17 40.96948 27.13341 30204 ft 452 kts 246°
2026-05-04 11:19 40.91852 26.84460 32118 ft 473 kts 264°
2026-05-04 11:19 40.91599 26.80126 32459 ft 473 kts 264°
2026-05-04 11:19 40.91342 26.75793 32768 ft 473 kts 264°
2026-05-04 11:19 40.91082 26.71452 33085 ft 474 kts 264°
2026-05-04 11:20 40.90824 26.67105 33419 ft 474 kts 264°
2026-05-04 11:20 40.90564 26.62763 33755 ft 474 kts 264°
2026-05-04 11:20 40.90301 26.58423 34079 ft 474 kts 265°
2026-05-04 11:20 40.90039 26.54073 34350 ft 474 kts 265°
2026-05-04 11:22 40.83409 26.25306 36054 ft 467 kts 249°
2026-05-04 11:22 40.82289 26.21293 36070 ft 466 kts 250°
2026-05-04 11:23 40.80430 26.14634 36064 ft 465 kts 250°
2026-05-04 11:25 40.73099 25.88498 36063 ft 466 kts 250°
2026-05-04 11:25 40.71735 25.83675 36067 ft 466 kts 250°
2026-05-04 11:27 40.61502 25.47730 36126 ft 466 kts 250°
2026-05-04 11:28 40.59216 25.39755 36130 ft 466 kts 250°
2026-05-04 11:28 40.56923 25.31783 36126 ft 466 kts 250°
2026-05-04 11:29 40.54621 25.23822 36132 ft 466 kts 250°
2026-05-04 11:29 40.52317 25.15870 36131 ft 466 kts 250°
2026-05-04 11:33 40.36116 24.60653 36157 ft 460 kts 250°
2026-05-04 11:33 40.33800 24.52851 36159 ft 459 kts 250°
2026-05-04 11:34 40.31484 24.45068 36159 ft 458 kts 250°
2026-05-04 11:34 40.29163 24.37296 36158 ft 457 kts 251°
2026-05-04 11:35 40.26844 24.29546 36163 ft 457 kts 251°
2026-05-04 11:35 40.24517 24.21801 36160 ft 457 kts 251°
2026-05-04 11:36 40.22190 24.14069 36160 ft 457 kts 251°
2026-05-04 11:36 40.19851 24.06341 36164 ft 457 kts 251°
2026-05-04 11:37 40.17507 23.98619 36163 ft 456 kts 251°
2026-05-04 11:37 40.15167 23.90907 36163 ft 456 kts 251°
2026-05-04 11:38 40.12823 23.83199 36166 ft 456 kts 251°
2026-05-04 11:38 40.10487 23.75549 36160 ft 455 kts 251°
2026-05-04 11:39 40.08130 23.67878 36159 ft 455 kts 251°
2026-05-04 11:41 39.99861 23.41041 36167 ft 455 kts 252°
2026-05-04 11:41 39.97484 23.33404 36176 ft 454 kts 252°
2026-05-04 11:42 39.95105 23.25772 36177 ft 454 kts 252°
2026-05-04 11:42 39.92728 23.18155 36177 ft 453 kts 252°